Groundwater Watch Latest News...



Klamath County, Oregon
Click site symbol to open information pop-up. Click Station ID in pop-up for information and data.
Map loading slowly? Try a different browser. Web browser performance varies significantly.
Explanation of symbols on the state map.

Map generated 12/3/2021 7:58:42 AM
Groundwater Watch
Help Page
     

Network wells depicted on the Klamath County, OR location map
Note: Color shading in the table below indicates multiple wells that plot as a single point on the state location map above.
Note: BLS = Water Level in Feet Below Land Surface, RVD = Water Level referenced to a vertical datum
Map
Index
Site ID Site NameMost Recent
Measurement
DateWell
Depth
Local Aquifer
1 420013121531801 41.00S/08.00E-16BDC01 120.01 BLS 10/5/2021  169     
2 420120121355401 41.00S/10.00E-12BBC01  19.50 BLS 10/5/2021  295     
3 420125121360601 41.00S/10.00E-11AAA02  92.02 BLS 10/5/2021  1050     
4 420129121355901 41.00S/10.00E-02DDD01  95.26 BLS 10/5/2021  1088     
5 420246121541401 40.00S/08.00E-32BDD01 173.45 BLS 10/5/2021  230     
6 420318121312201 40.00S/11.00E-28DDD01 316.75 BLS 12/2/2021   335.00   Basalt
7 420348121453601 40.00S/09.00E-28ADB01  51.48 BLS 10/6/2021  128      Nonmarine Sedimentary Rocks
8 420352121505901 40.00S/08.00E-26BBD01  12.74 BLS 10/5/2021  186     
9 420614121453801 40.00S/09.00E-09DAB01  12.06 BLS 10/5/2021  182     
10 420616121454701 40.00S/09.00E-09ACD01  49.77 BLS 10/5/2021  821     
11 420724121404001 40.00S/10.00E-05BBC01  65.17 BLS 10/6/2021  95     
12 420759121545101 39.00S/08.00E-31DAA01 160.21 BLS 10/6/2021  364     
13 420956121510101 39.00S/08.00E-23BCA01  29.99 BLS 10/6/2021  145     
14 420957121410401 39.00S/10.00E-19ACA02  15.11 BLS 10/6/2021  2006     
15 421102121415601 39.00S/09.00E-13AAA01  18.56 BLS 10/6/2021  155     
16 421126121452001 38.00S/09.00E-28DDC01  70.70 BLS 10/7/2021  333     
17 421228121421901 39.00S/09.00E-01ACD01  78.52 BLS 10/7/2021  1000     
18 421541121474201 38.00S/09.00E-17CBC01 209.87 BLS 10/7/2021  418     
19 421707120525401 38.00S/15.00E-12DAD01 197.87 BLS 10/6/2021  413     
20 422222120575601 37.00S/15.00E-08DBC01  53.83 BLS 10/6/2021  102     
21 422542121072001 36.00S/13.00E-24DCC01 112.36 BLS 10/6/2021   429.5   
22 422553122084001 36.00S/06.00E-17CDC01  47.98 BLS 7/16/2021  85     
23 422735122062302 36.00S/06.00E-03CCD02  10.13 BLS 10/6/2021  85     
24 423003121152601 35.00S/12.00E-26DCD01  26.18 BLS 10/6/2021  500     
25 423035121331401 35.00S/10.00E-29ACC01  31.50 BLS 10/6/2021  350      Nonmarine Sedimentary Rocks
26 423245121405001 35.00S/09.00E-08CCC01 120.29 BLS 10/6/2021  385     
27 423331121531001 35.00S/07.00E-09BAA01  90.98 BLS 10/6/2021  320     
28 423622121401001 34.00S/09.00E-20DCA01  67.29 BLS 10/6/2021  135     
29 423623121174001 34.00S/12.00E-21DAC01 265.65 BLS 10/6/2021  504     
30 423739121514101 34.00S/07.00E-15ADB02  -7.82 BLS 10/6/2021  780     
31 424225121594201 33.00S/07.50E-16DDA01  -5.23 BLS 10/6/2021  226     
32 424517122031501 32.00S/06.00E-36DAA01  39.05 BLS 11/30/2021    
33 425558121490801 30.00S/08.00E-31BAC01  32.41 BLS 7/14/2021  70     
34 425609121490701 30.00S/08.00E-30CDC01  75.00 BLS 10/4/2021  75     
35 425804121344701 30.00S/10.00E-18CDA01 100.32 BLS 10/4/2021    
36 430003121360901 30.00S/09.00E-01BCD01  56.67 BLS 10/7/2021    
37 430029121552101 30.00S/07.00E-06AAA01 201.00 BLS 10/4/2021     Mazama Pumice
38 430055121401501 29.00S/09.00E-32DBA01  18.76 BLS 10/7/2021  300     
39 430649121305201 28.00S/10.00E-27DBD01 393.92 BLS 10/4/2021     Basalt
40 430816121404101 28.00S/09.00E-20BAB01 487.39 BLS 10/4/2021  670     
41 430837121472801 28S/08E-17DBD 151.59 BLS 10/4/2021    
42 431337121575701 27.00S/06.50E-14AAB01 203.83 BLS 10/4/2021    


Springs depicted on the Klamath County , OR location map
Map
Index
Site ID Site NameMost Recent
Measurement
Date
SP1 11503000 ANNIE SPRING NEAR CRATER LAKE, OR0.82 CFS 12/2/2021


   


*References to non-Department of the Interior (DOI) products do not constitute an endorsement by the DOI.

*References to non-Department of the Interior (DOI) products do not constitute an endorsement by the DOI.

Accessibility FOIA Privacy Policies and Notices

Take Pride in America logo USA.gov logo U.S. Department of the Interior | U.S. Geological Survey
URL: https://groundwaterwatch.usgs.gov/countymap.asp
Last update: Thursday, March 4, 2021 at 13:30
Page Contact Information: Contact the GroundWater Watch Support Team